Simultaneous Nadir Overpasses (SNOs) Predictions

Prediction of SNOs between AQUA and NOAA-19 Satellite Orbit:

Table of predicted SNOs for the next 14.0 days since TLE Epoch: 10/15/2017
Index Date (AQUA) Time (AQUA) Lat,Lon (AQUA) SZA (AQUA ) Date (NOAA-19) Time (NOAA-19) Lat,Lon (NOAA-19) SZA (NOAA-19 ) Distance(km) Time Diff (sec)
1 10/16/2017 11:26:12 -80.93, 148.20 88.30 10/16/2017 11:26:14 -80.93, 148.15 88.30 1.30 2
2 10/18/2017 16:59:56 80.94,-115.31 92.52 10/18/2017 16:59:57 80.93,-115.24 92.50 2.05 1
3 10/20/2017 22:33:39 -80.93, -18.59 86.73 10/20/2017 22:33:43 -80.93, -18.61 86.73 0.50 4
4 10/23/2017 04:07:22 80.92, 78.10 94.04 10/23/2017 04:07:27 80.93, 78.03 94.05 1.54 5
5 10/25/2017 09:41:06 -80.94, 174.44 85.17 10/25/2017 09:41:12 -80.92, 174.57 85.19 2.66 6




NCC Satellite Simultaneous Nadir Overpasses (SNOs) Prediction Service
